Weather History for KCNK - October, 2012

Change the Weather History Date:

Friday, October 5, 2012

  Actual Average Record
Temperature  
Mean Temperature 45 °F 60 °F  
Max Temperature 52 °F 72 °F 102 °F (1947)
Min Temperature 38 °F 48 °F 32 °F (1932)
Degree Days  
Heating Degree Days 20 7  
Month to date heating degree days 51 32  
Since 1 July heating degree days 128 105  
Cooling Degree Days 0 1  
Month to date cooling degree days 0 9  
Year to date cooling degree days 1640 1335  
Moisture  
Dew Point 31 °F    
Average Humidity 57    
Maximum Humidity 73    
Minimum Humidity 41    
Precipitation  
Precipitation 0.02 in 0.07 in 1.94 in (1959)
Month to date precipitation 0.09 0.39  
Year to date precipitation 19.42 24.40  
Snow  
Snow 0.00 in 0.00 in 0.00 in ()
Month to date snowfall 0.0 0.0  
Year to date snowfall 5.8 13.7  
Since 1 July snowfall 0.0 0.0  
Snow Depth 0.00 in    
Sea Level Pressure  
Sea Level Pressure 30.32 in    
Wind  
Wind Speed 8 mph (North)    
Max Wind Speed 16 mph    
Max Gust Speed 22 mph    
Visibility 10 miles    
Events Rain    
T = Trace of Precipitation, MM = Missing Value Source: NWS Daily Summary

Daily Weather History Graph

Daily Weather History Graph

Search for Another Location

Airport or City:

Trip Planner

Search our weather history database for the weather conditions in past years. The results will help you decide how hot, cold, wet, or windy it might be!

Date:

Astronomy

Oct. 05, 2012 Rise Set
Actual Time 7:31 AM CDT 7:05 PM CDT
Civil Twilight 7:04 AM CDT 7:32 PM CDT
Nautical Twilight 6:33 AM CDT 8:03 PM CDT
Astronomical Twilight 6:01 AM CDT 8:35 PM CDT
Moon 10:31 PM CDT (10/5) 12:38 PM CDT (10/5)
Length of Visible Light 12h 28m
Length of Day
11h 34m
Waning Gibbous, 74% of the Moon is Illuminated
Oct 5
Waning Gibbous
Oct 8
Last Quarter
Oct 15
New
Oct 21
First Quarter
Oct 29
Full

Hourly Weather History & Observations

Time (CDT) Temp. Windchill Dew Point Humidity Pressure Visibility Wind Dir Wind Speed Gust Speed Precip Events Conditions
12:55 AM 45.0 °F 41.8 °F 32.0 °F 60% 30.31 in 10.0 mi North 5.8 mph - N/A   Clear
1:55 AM 45.0 °F 41.8 °F 32.0 °F 60% 30.31 in 10.0 mi North 5.8 mph - N/A   Overcast
2:55 AM 45.0 °F 39.7 °F 30.9 °F 58% 30.30 in 10.0 mi NNE 10.4 mph - N/A   Overcast
3:55 AM 44.1 °F 39.0 °F 30.9 °F 60% 30.30 in 10.0 mi North 9.2 mph - N/A   Overcast
4:55 AM 42.1 °F 38.4 °F 30.9 °F 65% 30.30 in 10.0 mi NE 5.8 mph - N/A   Overcast
5:55 AM 39.9 °F 35.8 °F 30.9 °F 70% 30.31 in 10.0 mi NNE 5.8 mph - N/A   Scattered Clouds
6:55 AM 39.0 °F 34.0 °F 30.0 °F 70% 30.29 in 10.0 mi NE 6.9 mph - N/A   Partly Cloudy
7:55 AM 39.0 °F 34.0 °F 30.0 °F 70% 30.32 in 10.0 mi North 6.9 mph - N/A   Partly Cloudy
8:55 AM 41.0 °F 35.2 °F 30.0 °F 65% 30.33 in 10.0 mi NNE 9.2 mph - N/A   Mostly Cloudy
9:55 AM 42.1 °F 37.1 °F 30.0 °F 62% 30.35 in 10.0 mi North 8.1 mph - N/A   Overcast
10:55 AM 41.0 °F 34.3 °F 33.1 °F 73% 30.38 in 10.0 mi NNE 11.5 mph - 0.00 in Rain Light Rain
11:55 AM 41.0 °F 35.8 °F 33.1 °F 73% 30.37 in 10.0 mi NNE 8.1 mph - 0.00 in Rain Light Rain
12:27 PM 41.0 °F 33.5 °F 33.8 °F 76% 30.36 in 9.0 mi North 13.8 mph - 0.01 in Rain Light Rain
12:55 PM 41.0 °F 39.0 °F 34.0 °F 76% 30.38 in 10.0 mi East 3.5 mph - 0.02 in Rain Light Rain
1:55 PM 46.0 °F 43.1 °F 36.0 °F 68% 30.34 in 10.0 mi NNE 5.8 mph - N/A   Scattered Clouds
2:55 PM 50.0 °F - 28.9 °F 44% 30.31 in 10.0 mi NNE 13.8 mph 20.7 mph N/A   Mostly Cloudy
3:55 PM 50.0 °F - 28.9 °F 44% 30.30 in 10.0 mi North 10.4 mph - N/A   Overcast
4:55 PM 48.9 °F - 30.0 °F 48% 30.29 in 10.0 mi NNW 8.1 mph - N/A   Overcast
5:55 PM 51.1 °F - 28.0 °F 41% 30.30 in 10.0 mi North 15.0 mph - N/A   Clear
6:55 PM 48.0 °F - 27.0 °F 44% 30.30 in 10.0 mi North 4.6 mph - N/A   Overcast
7:55 PM 44.1 °F 40.1 °F 27.0 °F 51% 30.32 in 10.0 mi North 6.9 mph - N/A   Clear
8:55 PM 44.1 °F 40.8 °F 26.1 °F 49% 30.32 in 10.0 mi NNW 5.8 mph - N/A   Clear
9:55 PM 42.1 °F 38.4 °F 28.0 °F 58% 30.35 in 10.0 mi WNW 5.8 mph - N/A   Clear
10:55 PM 42.1 °F 37.1 °F 33.1 °F 70% 30.34 in 10.0 mi NW 8.1 mph - N/A   Clear
11:55 PM 41.0 °F 38.0 °F 34.0 °F 76% 30.33 in 10.0 mi West 4.6 mph - N/A   Clear